EW2173 Weather Reports


time (UTC)temp
C
wind
direction
speed
KPH
gust
KPH
rain 1hr
cm
rain 24hr
cm
rain mn
cm
humidity
%
barometer
mb
20260503223015 18 70 3.2 22.5 0.00 0.00 0.00 39 1018.8
20260503221514 18 25 1.6 12.9 0.00 0.00 0.00 39 1019.0
20260503220012 17 105 0.0 14.5 0.00 0.00 0.00 39 1019.1
20260503214511 17 92 4.8 24.1 0.00 0.00 0.00 36 1019.2
20260503213012 17 61 8.0 19.3 0.00 0.00 0.00 38 1019.3
20260503211509 18 17 1.6 19.3 0.00 0.00 0.00 39 1019.5
20260503210008 18 105 0.0 14.5 0.00 0.00 0.00 38 1019.4
20260503204507 17 64 12.9 20.9 0.00 0.00 0.00 37 1019.9
20260503203012 17 51 8.0 16.1 0.00 0.00 0.00 35 1020.1
20260503201506 18 106 6.4 16.1 0.00 0.00 0.00 35 1020.3
20260503200008 17 134 0.0 11.3 0.00 0.00 0.00 38 1020.7
20260503194505 17 233 1.6 16.1 0.00 0.00 0.00 35 1020.8
20260503193002 16 150 3.2 12.9 0.00 0.00 0.00 37 1021.0
20260503191502 17 56 1.6 8.0 0.00 0.00 0.00 38 1021.2
20260503190001 18 205 4.8 14.5 0.00 0.00 0.00 36 1021.4
20260503184559 16 49 6.4 14.5 0.00 0.00 0.00 38 1021.5
20260503183116 16 15 3.2 11.3 0.00 0.00 0.00 40 1021.6
20260503181622 16 79 6.4 20.9 0.00 0.00 0.00 39 1021.9
20260503180105 16 106 0.0 8.0 0.00 0.00 0.00 40 1022.1
20260503174557 15 134 1.6 12.9 0.00 0.00 0.00 38 1022.2
20260503173100 16 79 1.6 11.3 0.00 0.00 0.00 36 1022.4
20260503171557 15 133 0.0 11.3 0.00 0.00 0.00 40 1022.6
20260503090105 6 135 1.6 6.4 0.00 0.00 0.00 76 1021.4
20260503081549 7 119 1.6 12.9 0.00 0.00 0.00 76 1021.0
20260503071538 7 122 1.6 4.8 0.00 0.00 0.00 75 1020.3
20260503054535 8 111 0.0 8.0 0.00 0.00 0.00 70 1020.0
20260503053022 8 129 1.6 11.3 0.00 0.00 0.00 69 1019.8
20260503051526 8 153 3.2 11.3 0.00 0.00 0.00 69 1019.9
20260503050021 8 116 0.0 4.8 0.00 0.00 0.00 70 1020.0
20260503044526 9 118 0.0 0.0 0.00 0.00 0.00 67 1019.8
20260503043013 9 118 1.6 3.2 0.00 0.00 0.00 67 1019.8
20260503041509 10 131 0.0 6.4 0.00 0.00 0.00 67 1019.5
20260503040005 10 129 0.0 6.4 0.00 0.00 0.00 66 1019.4
20260503034502 10 124 1.6 9.7 0.00 0.00 0.00 65 1019.4
20260503033059 10 124 0.0 9.7 0.00 0.00 0.00 65 1019.4
20260503031557 10 82 4.8 19.3 0.00 0.00 0.00 63 1019.4
20260503030053 10 120 8.0 19.3 0.00 0.00 0.00 62 1019.3
20260503024544 10 127 4.8 11.3 0.00 0.00 0.00 63 1019.1
20260503023038 10 110 3.2 14.5 0.00 0.00 0.00 62 1019.0
20260503021534 10 136 4.8 12.9 0.00 0.00 0.00 61 1018.8
20260503020029 10 114 3.2 9.7 0.00 0.00 0.00 60 1018.7
20260503014525 10 114 1.6 12.9 0.00 0.00 0.00 59 1018.5
20260503013020 11 119 4.8 12.9 0.00 0.00 0.00 57 1018.3
20260503011515 11 96 3.2 11.3 0.00 0.00 0.00 57 1018.1
20260503010012 11 139 3.2 12.9 0.00 0.00 0.00 55 1017.9
20260503004506 11 164 1.6 11.3 0.00 0.00 0.00 55 1017.7
20260503003001 12 123 3.2 9.7 0.00 0.00 0.00 53 1017.6
20260503001601 12 148 4.8 12.9 0.00 0.00 0.00 51 1017.2
20260503000057 13 132 3.2 14.5 0.00 0.00 0.00 50 1017.0
20260502234549 13 135 4.8 14.5 0.00 0.00 0.00 48 1016.8
20260502233044 14 145 9.7 17.7 0.00 0.00 0.00 46 1016.7
20260502231538 15 155 3.2 17.7 0.00 0.00 0.00 44 1016.6
20260502230034 14 87 3.2 17.7 0.00 0.00 0.00 44 1016.6
20260502224530 14 119 4.8 20.9 0.00 0.00 0.00 44 1016.6